Location: Poughquag
(41.6090°N, 73.6820°W)
Time: 11:46:16
(UTC-04:00)

A-11 Canister half - Pass Details

Date: 06 June 2020
Orbit: 1527 x 1682 km, 47.3° (Epoch: 06 July)

Event Time Altitude Azimuth Distance (km) Brightness Sun altitude
Rises 12:33:04 0° 297° (WNW) 4,707 11.4 70.7°
Reaches altitude 10° 12:36:08 10° 294° (WNW) 3,736 11.0 70.8°
Maximum altitude 12:45:23 62° 217° (SW) 1,749 11.1 71.1°
Drops below altitude 10° 12:54:56 10° 140° (SE) 3,841 11.5 71.1°
Sets 12:58:08 0° 137° (SE) 4,846 11.8 71.1°
